Home   Weather   Constantine   Past weeks

Flag for Algeria Past Weather in Constantine, Algeria — Yesterday and Last 2 Weeks

Now
50 °F

Passing clouds.


Feels Like: 50 °F
Forecast: 50 / 63 °F
Wind: No wind

Location: Constantine Airport

Current Time: Dec 8, 2016 at 7:04:15 am

Latest Report: Dec 8, 2016 at 6:00 am


Visibility: 4 mi

Pressure: 30.36 "Hg (28.39 "Hg at 557m altitude)

Humidity: 94%

Dew Point: 48 °F

Location of ConstantineLocation

Past Weather in Constantine — Graph

°F

Constantine Temperature Yesterday

Maximum temperature yesterday: 61 °F (at 3:00 pm)
Minimum temperature yesterday: 50 °F (at 2:00 am)
Average temperature yesterday: 53 °F

High & Low Weather Summary for the Past Weeks

 TemperatureHumidityPressure
High70 °F (Nov 23, 2:30 pm)100% (Nov 25, 2:30 am)30.42 "Hg (Nov 25, 2:30 am)
Low34 °F (Dec 1, 7:30 am)27% (Nov 23, 2:30 pm)29.80 "Hg (Nov 23, 3:30 pm)
Average51 °F74%30.07 "Hg
* Reported Nov 23 6:00 am — Dec 8 6:00 am, Constantine, Weather by CustomWeather, © 2016

Note: Actual official high and low records may vary slightly from our data, if they occured in-between our weather recording intervals... More about our weather records

Advertising

Constantine Weather History for the Previous 24 Hours

Scroll right to see more
 ConditionsComfort  
Time TempWeatherWind HumidityBarometerVisibility
6:00 am
Thu, Dec 8
50 °FPassing clouds.No wind94%30.36 "Hg4 mi
5:30 am52 °FPassing clouds.3 mph94%30.36 "Hg3 mi
5:00 am52 °FPassing clouds.3 mph88%30.36 "Hg4 mi
4:30 am52 °FPassing clouds.3 mph94%30.36 "Hg4 mi
3:30 am50 °FPassing clouds.No wind94%30.36 "Hg3 mi
3:00 am50 °FPassing clouds.No wind94%30.36 "Hg4 mi
2:30 am50 °FFog.No wind94%30.36 "Hg2 mi
2:00 am50 °FFog.No wind94%30.36 "Hg2 mi
1:30 am52 °FPassing clouds.No wind94%30.33 "Hg4 mi
1:00 am52 °FPassing clouds.3 mph88%30.33 "Hg4 mi
12:30 am50 °FPassing clouds.No wind94%30.33 "Hg5 mi
12:00 am50 °FPassing clouds.No wind94%30.33 "Hg6 mi
11:30 pm
Wed, Dec 7
52 °FPassing clouds.3 mph88%30.36 "Hg6 mi
11:00 pm52 °FPassing clouds.No wind88%30.36 "Hg6 mi
10:30 pm52 °FPassing clouds.3 mph88%30.33 "HgN/A
10:00 pm52 °FPassing clouds.3 mph88%30.33 "HgN/A
8:30 pm52 °FPassing clouds.No wind94%30.33 "HgN/A
8:00 pm54 °FPassing clouds.No wind88%30.33 "HgN/A
7:30 pm54 °FPassing clouds.5 mph88%30.30 "HgN/A
6:30 pm54 °FPassing clouds.6 mph88%30.27 "HgN/A
6:00 pm55 °FPassing clouds.6 mph82%30.27 "HgN/A
5:30 pm55 °FPassing clouds.7 mph82%30.27 "HgN/A
5:00 pm55 °FScattered clouds.6 mph82%30.27 "HgN/A
4:30 pm57 °FScattered clouds.8 mph72%30.24 "HgN/A
4:00 pm57 °FScattered clouds.9 mph77%30.24 "HgN/A
3:00 pm61 °FScattered clouds.9 mph72%30.24 "HgN/A
2:30 pm59 °FScattered clouds.6 mph72%30.21 "HgN/A
2:00 pm57 °FScattered clouds.8 mph82%30.21 "HgN/A
1:30 pm59 °FScattered clouds.5 mph77%30.21 "HgN/A
1:00 pm57 °FScattered clouds.6 mph88%30.24 "HgN/A
12:30 pm54 °FBroken clouds.6 mph94%30.24 "Hg4 mi
12:00 pm54 °FLight rain. Broken clouds.6 mph88%30.27 "Hg4 mi
11:30 am55 °FBroken clouds.7 mph88%30.27 "Hg4 mi
11:00 am55 °FBroken clouds.2 mph88%30.27 "Hg4 mi
10:30 am54 °FBroken clouds.2 mph94%30.27 "Hg4 mi
10:00 am54 °FBroken clouds.2 mph94%30.24 "Hg5 mi
9:30 am52 °FBroken clouds.No wind100%30.24 "Hg4 mi
9:00 am52 °FBroken clouds.No wind94%30.24 "Hg4 mi
8:30 am50 °FFog.No wind100%30.21 "Hg2 mi
8:00 am50 °FBroken clouds.1 mph94%30.21 "Hg3 mi
7:30 am50 °FPartly cloudy.2 mph94%30.21 "Hg3 mi
7:00 am50 °FPartly cloudy.1 mph94%30.21 "Hg3 mi
Weather by CustomWeather, © 2016

See weather overviewHow to use our weather pages